Location: Ballingbuur
(53.0000°N, 5.7667°E)
Time: 05:57:50
(UTC+00:00)

ALOS - Pass Details

Date: 29 November 2020
Orbit: 682 x 686 km, 97.9° (Epoch: 23 January)

Event Time Altitude Azimuth Distance (km) Brightness Sun altitude
Rises 05:23:27 0° 8° (N) 3,068 5.6 -17.3°
Reaches altitude 10° 05:25:53 10° 359° (N) 2,147 4.7 -17.0°
Maximum altitude 05:30:01 32° 297° (WNW) 1,181 2.9 -16.4°
Enters shadow 05:31:47 24° 258° (WSW) 1,405 3.4 -16.1°
